Location: Mannheim
(49.4880°N, 8.4650°E)
Time: 06:21:41
(UTC+02:00)

ACS3 Solar Sail - Pass Details

Date: 22 September 2024
Orbit: 963 x 1036 km, 97.4° (Epoch: 04 October)

Event Time Altitude Azimuth Distance (km) Brightness Sun altitude
Exits shadow 22:00:14 19° 189° (S) 2,246 3.5 -25.0°
Maximum altitude 22:04:52 56° 262° (W) 1,223 2.5 -25.6°
Drops below altitude 10° 22:11:11 10° 340° (NNW) 2,840 4.9 -26.5°
Sets 22:13:46 0° 345° (NNW) 3,790 5.6 -26.8°
